• In Uzbekistan
  • List of Countries
  • For 7 days
  • Water Temperature
  • Satellite Maps
  • Weather Map
  • Weather Widgets
  • user-avatar
    Login

    Hourly Weather Kabwe

    Today, 24 January, Wednesday

    Time Temperature Precipitation Wind Pressure Humidity
    00:00 +20°C° 0 mm 1 mps 659 mmHg 72%
    01:00 +20°C° 0 mm 1 mps 659 mmHg 75%
    02:00 +19°C° 0 mm 1 mps 659 mmHg 82%
    03:00 +19°C° 0 mm 1 mps 659 mmHg 85%
    04:00 +18°C° 0 mm 1 mps 660 mmHg 87%
    05:00 +18°C° 0 mm 1 mps 660 mmHg 90%
    06:00 +20°C° 0 mm 1 mps 660 mmHg 85%
    07:00 +21°C° 0 mm 1 mps 661 mmHg 79%
    08:00 +23°C° 0 mm 2 mps 662 mmHg 72%
    09:00 +26°C° 0 mm 1 mps 662 mmHg 64%
    10:00 +28°C° 0 mm 1 mps 662 mmHg 56%
    11:00 +31°C° 0 mm 1 mps 662 mmHg 48%
    12:00 +31°C° 0 mm 1 mps 662 mmHg 45%
    13:00 +32°C° 0 mm 1 mps 661 mmHg 43%
    14:00 +30°C° 0 mm 0 mps 661 mmHg 41%
    15:00 +31°C° 0 mm 1 mps 660 mmHg 44%
    16:00 +30°C° 0 mm 1 mps 659 mmHg 47%
    17:00 +29°C° 0 mm 1 mps 659 mmHg 50%
    18:00 +28°C° 0 mm 1 mps 659 mmHg 54%
    19:00 +24°C° 0 mm 0 mps 659 mmHg 57%
    20:00 +22°C° 0 mm 0 mps 659 mmHg 61%
    21:00 +21°C° 0.1 mm 0 mps 659 mmHg 64%
    22:00 +23°C° 0.1 mm 1 mps 660 mmHg 67%
    23:00 +22°C° 0.1 mm 1 mps 660 mmHg 70%

    Tomorrow, 25 January, Thursday

    Time Temperature Precipitation Wind Pressure Humidity
    00:00 +22°C° 0.2 mm 1 mps 660 mmHg 72%
    01:00 +22°C° 0.2 mm 1 mps 659 mmHg 74%
    02:00 +21°C° 0.2 mm 1 mps 659 mmHg 77%
    03:00 +21°C° 0 mm 1 mps 659 mmHg 80%
    04:00 +20°C° 0 mm 1 mps 659 mmHg 84%
    05:00 +20°C° 0 mm 1 mps 659 mmHg 87%
    06:00 +21°C° 0 mm 1 mps 660 mmHg 83%
    07:00 +22°C° 0 mm 1 mps 660 mmHg 79%
    08:00 +24°C° 0 mm 1 mps 661 mmHg 75%
    09:00 +26°C° 0.2 mm 1 mps 661 mmHg 65%
    10:00 +29°C° 0.2 mm 1 mps 662 mmHg 55%
    11:00 +30°C° 0.2 mm 0 mps 662 mmHg 45%
    12:00 +30°C° 0 mm 0 mps 662 mmHg 44%
    13:00 +30°C° 0 mm 0 mps 661 mmHg 43%
    14:00 +32°C° 0 mm 1 mps 660 mmHg 42%
    15:00 +30°C° 0 mm 1 mps 660 mmHg 46%
    16:00 +29°C° 0 mm 1 mps 659 mmHg 49%
    17:00 +28°C° 0 mm 1 mps 659 mmHg 52%
    18:00 +27°C° 0 mm 1 mps 659 mmHg 56%
    19:00 +26°C° 0 mm 1 mps 659 mmHg 59%
    20:00 +22°C° 0 mm 0 mps 659 mmHg 62%
    21:00 +22°C° 0 mm 0 mps 659 mmHg 65%
    22:00 +21°C° 0 mm 0 mps 660 mmHg 68%
    23:00 +20°C° 0 mm 0 mps 660 mmHg 72%

    Day after tomorrow, 26 January, Friday

    Time Temperature Precipitation Wind Pressure Humidity
    00:00 +19°C° 0 mm 0 mps 659 mmHg 74%
    01:00 +19°C° 0 mm 0 mps 659 mmHg 76%
    02:00 +18°C° 0 mm 0 mps 658 mmHg 78%
    03:00 +18°C° 0 mm 0 mps 658 mmHg 79%
    04:00 +18°C° 0 mm 0 mps 659 mmHg 80%
    05:00 +20°C° 0 mm 1 mps 659 mmHg 81%
    06:00 +21°C° 0 mm 1 mps 660 mmHg 77%
    07:00 +23°C° 0 mm 1 mps 661 mmHg 72%
    08:00 +24°C° 0 mm 1 mps 661 mmHg 68%
    09:00 +26°C° 0.3 mm 2 mps 662 mmHg 64%
    10:00 +27°C° 0.3 mm 2 mps 662 mmHg 59%
    11:00 +29°C° 0.3 mm 2 mps 662 mmHg 55%
    12:00 +29°C° 0.1 mm 2 mps 661 mmHg 51%
    13:00 +30°C° 0.1 mm 2 mps 661 mmHg 48%
    14:00 +31°C° 0.1 mm 2 mps 660 mmHg 44%
    15:00 +30°C° 0 mm 2 mps 659 mmHg 49%
    16:00 +28°C° 0 mm 1 mps 659 mmHg 54%
    17:00 +27°C° 0 mm 1 mps 658 mmHg 59%
    18:00 +26°C° 0.1 mm 1 mps 659 mmHg 64%
    19:00 +24°C° 0.1 mm 1 mps 659 mmHg 69%
    20:00 +23°C° 0.1 mm 1 mps 659 mmHg 74%
    21:00 +22°C° 0 mm 1 mps 659 mmHg 75%
    22:00 +21°C° 0 mm 1 mps 659 mmHg 77%
    23:00 +21°C° 0 mm 1 mps 660 mmHg 78%

    27 January, Saturday

    Time Temperature Precipitation Wind Pressure Humidity
    00:00 +20°C° 0 mm 1 mps 659 mmHg 79%
    01:00 +20°C° 0 mm 1 mps 659 mmHg 81%
    02:00 +19°C° 0 mm 1 mps 658 mmHg 82%
    03:00 +19°C° 0 mm 1 mps 658 mmHg 83%
    04:00 +18°C° 0 mm 1 mps 658 mmHg 84%
    05:00 +18°C° 0 mm 1 mps 658 mmHg 85%
    06:00 +19°C° 0 mm 1 mps 659 mmHg 79%
    07:00 +21°C° 0 mm 1 mps 660 mmHg 73%
    08:00 +23°C° 0 mm 2 mps 662 mmHg 67%
    09:00 +25°C° 0 mm 2 mps 662 mmHg 60%
    10:00 +27°C° 0 mm 2 mps 662 mmHg 53%
    11:00 +29°C° 0 mm 3 mps 662 mmHg 46%
    12:00 +30°C° 0.1 mm 2 mps 661 mmHg 45%
    13:00 +30°C° 0.1 mm 2 mps 661 mmHg 44%
    14:00 +31°C° 0.1 mm 2 mps 660 mmHg 43%
    15:00 +30°C° 0 mm 2 mps 659 mmHg 45%
    16:00 +30°C° 0 mm 2 mps 659 mmHg 47%
    17:00 +29°C° 0 mm 2 mps 658 mmHg 49%
    18:00 +28°C° 0 mm 1 mps 659 mmHg 54%
    19:00 +26°C° 0 mm 1 mps 659 mmHg 59%
    20:00 +24°C° 0 mm 1 mps 659 mmHg 64%
    21:00 +23°C° 0.3 mm 1 mps 659 mmHg 69%
    22:00 +22°C° 0.3 mm 1 mps 660 mmHg 74%
    23:00 +22°C° 0.3 mm 1 mps 660 mmHg 79%

    28 January, Sunday

    Time Temperature Precipitation Wind Pressure Humidity
    00:00 +21°C° 0.2 mm 1 mps 659 mmHg 82%
    01:00 +21°C° 0.2 mm 1 mps 659 mmHg 85%
    02:00 +20°C° 0.2 mm 1 mps 658 mmHg 88%
    03:00 +20°C° 0 mm 1 mps 658 mmHg 90%
    04:00 +20°C° 0 mm 1 mps 658 mmHg 91%
    05:00 +19°C° 0 mm 1 mps 658 mmHg 93%
    06:00 +21°C° 0 mm 1 mps 659 mmHg 90%
    07:00 +22°C° 0 mm 1 mps 660 mmHg 86%
    08:00 +21°C° 0 mm 0 mps 661 mmHg 82%
    09:00 +22°C° 0.5 mm 0 mps 661 mmHg 77%
    10:00 +26°C° 0.5 mm 1 mps 661 mmHg 72%
    11:00 +27°C° 0.5 mm 1 mps 661 mmHg 67%
    12:00 +28°C° 0.3 mm 1 mps 661 mmHg 62%
    13:00 +29°C° 0.3 mm 1 mps 660 mmHg 57%
    14:00 +30°C° 0.3 mm 1 mps 659 mmHg 52%
    15:00 +29°C° 0 mm 1 mps 659 mmHg 52%
    16:00 +29°C° 0 mm 1 mps 659 mmHg 52%
    17:00 +29°C° 0 mm 1 mps 659 mmHg 51%
    18:00 +27°C° 0.1 mm 1 mps 659 mmHg 58%
    19:00 +25°C° 0.1 mm 1 mps 659 mmHg 64%
    20:00 +21°C° 0.1 mm 0 mps 659 mmHg 71%
    21:00 +21°C° 0.2 mm 0 mps 659 mmHg 74%
    22:00 +20°C° 0.2 mm 0 mps 659 mmHg 78%
    23:00 +19°C° 0.2 mm 0 mps 660 mmHg 82%

    29 January, Monday

    Time Temperature Precipitation Wind Pressure Humidity
    00:00 +21°C° 0.2 mm 1 mps 659 mmHg 84%
    01:00 +21°C° 0.2 mm 1 mps 659 mmHg 86%
    02:00 +20°C° 0.2 mm 1 mps 658 mmHg 88%
    03:00 +20°C° 0 mm 1 mps 658 mmHg 89%
    04:00 +18°C° 0 mm 0 mps 659 mmHg 90%
    05:00 +18°C° 0 mm 0 mps 659 mmHg 91%
    06:00 +19°C° 0 mm 0 mps 660 mmHg 87%
    07:00 +20°C° 0 mm 0 mps 660 mmHg 82%
    08:00 +24°C° 0 mm 1 mps 661 mmHg 78%
    09:00 +26°C° 0.1 mm 1 mps 661 mmHg 70%
    10:00 +27°C° 0.1 mm 2 mps 661 mmHg 62%
    11:00 +29°C° 0.1 mm 3 mps 662 mmHg 55%
    12:00 +29°C° 0.7 mm 3 mps 661 mmHg 56%
    13:00 +29°C° 0.7 mm 3 mps 660 mmHg 57%
    14:00 +29°C° 0.7 mm 3 mps 659 mmHg 59%
    15:00 +29°C° 0.8 mm 3 mps 659 mmHg 62%
    16:00 +28°C° 0.8 mm 2 mps 659 mmHg 65%
    17:00 +28°C° 0.8 mm 2 mps 659 mmHg 67%
    18:00 +26°C° 0.6 mm 2 mps 659 mmHg 73%
    19:00 +24°C° 0.6 mm 2 mps 659 mmHg 79%
    20:00 +22°C° 0.6 mm 1 mps 659 mmHg 84%
    21:00 +22°C° 0.1 mm 1 mps 659 mmHg 86%
    22:00 +21°C° 0.1 mm 1 mps 659 mmHg 88%
    23:00 +21°C° 0.1 mm 1 mps 660 mmHg 90%
    Show more